• Le Poker by Infinite Player


    En France !!!

    Viens jouer au poker dans ton spot

    favori : c'est en live, c'est 100% gratuit

    et c'est super convivial.

    Rejoins la famille Infinite Player ;)

  • Infinite Player

    Résultats

    Consultez vos

    classements

    et statistiques

  • Les soirées Poker Infinite Player

    Dans votre établissement ?

    Devenir

    établissement partenaire

    Que vous soyez un bowling, un bar, un restaurant,

    un escape-game, un hôtel, ou même une salle de billard

    vous pouvez très nettement augmenter votre clientèle de

    semaine en hébergeant facilement nos tournois, contactez-nous !

INFINITE PLAYER :

La seule Ligue 100% gratuite de poker en Suisse depuis 2015, et en France depuis 2020 !!!

Pour participer c’est très simple, connecte-toi à ton espace personnel, choisis le jour où tu veux jouer, inscris-toi, et c'est parti !

Selon ton classement et du nombre de joueurs, tu obtiens des points qui forment une moyenne et ainsi, à chaque fin de saison (4 mois), te donneront accès aux finales, toujours 100% gratuites, regroupant les meilleurs joueurs de la région et avec une superbe dotation !!

Auras-tu l’aplomb ? Seras-tu le prochain champion INFINITE PLAYER en remportant des tickets pour les plus grands tournois d’Europe ?

(Dont les fameux évènements de notre partenaire Winamax : le Winamax Poker Tour, le Winamax Poker Open et le Sismix)

SHUFFLE UP AND DEAL !!!

Dernières nouvelles

Le championnat Infinite Player du Q1 2022 se termine ce 30 avril 2022, plus qu'une semaine pour te qualifier !!

CLIQUE ICI POUR Y ACCEDER

Le classement Infinite Player du Q3 2021 dans la zone SUD est disponible.

CLIQUE ICI POUR Y ACCEDER

A jour au 30/12, prochaine mise à jour le 31/12.

Le classement Infinite Player du Q3 2021 en Rhône-Alpes est disponible.

CLIQUE ICI POUR Y ACCEDER

A jour au 30/12, prochaine mise à jour le 31/12.

Tu veux jouer avec nous Online et participer à nos divers championnats ? C'est par ici que ça se passe :

CLIQUE ICI POUR Y ACCEDER

LA SORTIE DU COVID APPROCHE !! On reprend enfin le Poker Live gratuit dans vos établissements favoris après cette longue période sans vous voir. En Juin c'est seulement les week-end (couvre-feu oblige) et dès Juillet retour à la normale. Par contre, le masque reste obligatoire et le 6-max imposé jusqu'à nouvel ordre.

DEPUIS 2015 EN SUISSE, NOUS VOICI ENFIN EN FRANCE !! Jouez au poker dans votre établissement favori : C'est en live, c'est 100% gratuit, et vous vous créez un cercle d'amis.

Nouveaux établissements

14 avenue de Grasse,
CAGNES-SUR-MER (06800)

1 rue Gilbert Ménie,
MORTEAU (25500)

ZA Les Basseaux,
ETOILE-SUR-RHÔNE (26800)

Tournois à venir

Ville

Établissement

Jour

Date / Heure de RDV
(start 30' après)

Inscriptions

202210071900 PONT-DU-CHATEAU (63430) Le Player 63 Vendredi 07 octobre 19:00 3/32
202210071930 ANNEMASSE (74100) Le Madness Beear Vendredi 07 octobre 19:30 5/18
202210081030 FILLINGES (74250) L'Open Samedi 08 octobre 10:30 36/56
202210091400 ALBERTVILLE (73200) Le Mic & l'Ange Dimanche 09 octobre 14:00 3/27
202210091700 ETOILE-SUR-RHÔNE (26800) My Beers (Etoile) Dimanche 09 octobre 17:00 9/24
202210091700 MONTPELLIER (34000) My Beers (Montpellier) Dimanche 09 octobre 17:00 24/24
202210091730 ARLES (13200) My Beers (Arles) Dimanche 09 octobre 17:30 14/27
202210091730 LE THOR (84250) My Beers (Isle sur Sorgue) Dimanche 09 octobre 17:30 27/27 +2 intéressés
202210091830 ROQUEBRUNE-SUR-ARGENS (83520) La Bonne Etoile Dimanche 09 octobre 18:30 21/32
202210091900 NICE (06000) Le Latino Son Dimanche 09 octobre 19:00 15/24
202210101830 SAINT JULIEN EN GENEVOIS (74160) Le Saint Jus (Lundi) Lundi 10 octobre 18:30 2/18
202210101900 MONTPELLIER (34000) The Shakespeare Lundi 10 octobre 19:00 18/18 +4 intéressés
202210101900 VILLEURBANNE (69100) Le Bryan's Café Lundi 10 octobre 19:00 9/24
202210101900 BESANCON (25000) Le Play Arena Lundi 10 octobre 19:00 10/27
202210101900 SILLINGY (74330) L'American Diner Lundi 10 octobre 19:00 5/32
202210101900 CHAMBERY (73000) Le Brock Art Lundi 10 octobre 19:00 5/24
202210101900 NICE (06300) L'Akathor Lundi 10 octobre 19:00 9/27
202210101930 THONON-LES-BAINS (74200) La Bodega Lundi 10 octobre 19:30 0/40
202210111830 SAINT JULIEN EN GENEVOIS (74160) Le Saint Jus (Mardi) Mardi 11 octobre 18:30 7/18
202210111900 LAGNIEU (01150) La Grange (Mardi) Mardi 11 octobre 19:00 1/24
202210111900 GORREVOD (01190) Le Repère Mardi 11 octobre 19:00 0/24
202210111900 CAGNES-SUR-MER (06800) Le Cagnes Pizza Mardi 11 octobre 19:00 11/18
202210111900 RIORGES (42153) Le Bowling de Riorges (Mardi) Mardi 11 octobre 19:00 3/32
202210111900 CHALLES-LES-EAUX (73190) Le Bier Fest Mardi 11 octobre 19:00 4/24
202210111900 BORMES-LES-MIMOSAS (83230) Le Basioburger Mardi 11 octobre 19:00 0/16
202210111900 NEZIGNAN-L'ÉVEQUE (34120) L'Eden Mardi 11 octobre 19:00 1/16
202210111900 SCIONZIER (74950) Le BobbyBar Mardi 11 octobre 19:00 1/18
202210111900 LYON (69002) The King Arthur Mardi 11 octobre 19:00 16/27
202210111900 SEYNOD (74600) Le Crazy Clock Mardi 11 octobre 19:00 2/24
202210121845 LE CANNET (06110) Le Mediterranée Mercredi 12 octobre 18:45 5/24
202210121845 CHATEAURENARD (13160) Le Café des Allées Mercredi 12 octobre 18:45 21/32
202210121900 CLERMONT-L'HERAULT (34800) Le Air Soccer 5 Mercredi 12 octobre 19:00 5/24
202210121900 LAGNIEU (01150) La Grange (Mercredi) Mercredi 12 octobre 19:00 2/24
202210121900 SAINT-VALLIER (71230) Le Chant du Coq Mercredi 12 octobre 19:00 1/24
202210121900 SALAISE-SUR-SANNE (38150) Le Cargo Mercredi 12 octobre 19:00 0/24
202210121900 THONON-LES-BAINS (74200) O'CodeBar Mercredi 12 octobre 19:00 0/18
202210121900 VILLEFRANCHE-SUR-SAÔNE (69400) Le Wynwood Mercredi 12 octobre 19:00 9/32
202210121900 HYERES (83400) Le People Mercredi 12 octobre 19:00 0/24
202210121900 ANNECY (74000) Le Bowl Mercredi 12 octobre 19:00 3/32
202210121900 SAINT-PIERRE-D'ALBIGNY (73250) Le Miolans (mercredi) Mercredi 12 octobre 19:00 1/36
202210121900 PONT-DU-CHATEAU (63430) Le Player 63 Mercredi 12 octobre 19:00 2/32
202210121900 PORTE-LES-VALENCE (26800) Le Code Bar Mercredi 12 octobre 19:00 0/24
202210121930 MORTEAU (25500) Le Cosy Café Mercredi 12 octobre 19:30 2/24
202210121930 CESSY (01170) Le Cadence Café Mercredi 12 octobre 19:30 2/27
202210131830 JONQUIERES (84150) Le Brusco Jeudi 13 octobre 18:30 18/18 +3 intéressés
202210131900 THONON-LES-BAINS (74200) Le Café du Palais Jeudi 13 octobre 19:00 0/36
202210131900 BELLEVILLE (69220) L'Original Bar Jeudi 13 octobre 19:00 2/24
202210131900 RIORGES (42153) Le Bowling de Riorges (Jeudi) Jeudi 13 octobre 19:00 2/24
202210131900 GRILLY (01220) L'Echappée Belle Jeudi 13 octobre 19:00 1/18
202210131900 NICE (06000) Le Kind & Co. Jeudi 13 octobre 19:00 6/18
202210131900 BOURG-EN-BRESSE (01000) Le 1055 Jeudi 13 octobre 19:00 1/24
202210131900 SAINT-GERVAIS-LES-BAINS (74170) Le BJ'S Café Jeudi 13 octobre 19:00 0/16
202210131900 GRESY-SUR-AIX (73100) L'Envie Jeudi 13 octobre 19:00 2/27
202210131900 FILLINGES (74250) L'Hôtel Campanile Jeudi 13 octobre 19:00 8/18
202210131900 TOULON (83000) Les Aludes Jeudi 13 octobre 19:00 3/27
202210131900 BESANCON (25000) Le Fontaine Argent Jeudi 13 octobre 19:00 3/24
202210131900 CHÂTILLON SAINT JEAN (26750) Le M Jeudi 13 octobre 19:00 3/32
202210141930 ANNEMASSE (74100) Le Madness Beear Vendredi 14 octobre 19:30 0/18
202210161400 ALBERTVILLE (73200) Le Mic & l'Ange Dimanche 16 octobre 14:00 0/27
202210161700 ETOILE-SUR-RHÔNE (26800) My Beers (Etoile) Dimanche 16 octobre 17:00 0/24
202210161700 MONTPELLIER (34000) My Beers (Montpellier) Dimanche 16 octobre 17:00 13/24
202210161730 ARLES (13200) My Beers (Arles) Dimanche 16 octobre 17:30 6/27
202210161730 LE THOR (84250) My Beers (Isle sur Sorgue) Dimanche 16 octobre 17:30 27/27 +2 intéressés
202210161830 ROQUEBRUNE-SUR-ARGENS (83520) La Bonne Etoile Dimanche 16 octobre 18:30 13/32
202210161900 NICE (06000) Le Latino Son Dimanche 16 octobre 19:00 8/24
202210171830 SAINT JULIEN EN GENEVOIS (74160) Le Saint Jus (Lundi) Lundi 17 octobre 18:30 1/18
202210171900 NICE (06300) L'Akathor Lundi 17 octobre 19:00 6/27
202210171900 MONTPELLIER (34000) The Shakespeare Lundi 17 octobre 19:00 17/18
202210171900 VILLEURBANNE (69100) Le Bryan's Café Lundi 17 octobre 19:00 4/24
202210171900 CHAMBERY (73000) Le Brock Art Lundi 17 octobre 19:00 2/24
202210171900 BESANCON (25000) Le Play Arena Lundi 17 octobre 19:00 7/27
202210171900 SILLINGY (74330) L'American Diner Lundi 17 octobre 19:00 0/32
202210171930 THONON-LES-BAINS (74200) La Bodega Lundi 17 octobre 19:30 0/40
202210181830 SAINT JULIEN EN GENEVOIS (74160) Le Saint Jus (Mardi) Mardi 18 octobre 18:30 2/18
202210181900 NEZIGNAN-L'ÉVEQUE (34120) L'Eden Mardi 18 octobre 19:00 1/16
202210181900 CHALLES-LES-EAUX (73190) Le Bier Fest Mardi 18 octobre 19:00 0/24
202210181900 RIORGES (42153) Le Bowling de Riorges (Mardi) Mardi 18 octobre 19:00 2/32
202210181900 LYON (69002) The King Arthur Mardi 18 octobre 19:00 4/27
202210181900 BORMES-LES-MIMOSAS (83230) Le Basioburger Mardi 18 octobre 19:00 0/16
202210181900 SEYNOD (74600) Le Crazy Clock Mardi 18 octobre 19:00 0/24
202210181900 SCIONZIER (74950) Le BobbyBar Mardi 18 octobre 19:00 2/18
202210181900 GORREVOD (01190) Le Repère Mardi 18 octobre 19:00 0/24
202210181900 LAGNIEU (01150) La Grange (Mardi) Mardi 18 octobre 19:00 1/24
202210181900 CAGNES-SUR-MER (06800) Le Cagnes Pizza Mardi 18 octobre 19:00 6/18
202210191845 CHATEAURENARD (13160) Le Café des Allées Mercredi 19 octobre 18:45 7/32
202210191845 LE CANNET (06110) Le Mediterranée Mercredi 19 octobre 18:45 2/24
202210191900 THONON-LES-BAINS (74200) O'CodeBar Mercredi 19 octobre 19:00 0/18
202210191900 SAINT-VALLIER (71230) Le Chant du Coq Mercredi 19 octobre 19:00 0/24
202210191900 SALAISE-SUR-SANNE (38150) Le Cargo Mercredi 19 octobre 19:00 0/24
202210191900 HYERES (83400) Le People Mercredi 19 octobre 19:00 0/24
202210191900 VILLEFRANCHE-SUR-SAÔNE (69400) Le Wynwood Mercredi 19 octobre 19:00 6/32
202210191900 LAGNIEU (01150) La Grange (Mercredi) Mercredi 19 octobre 19:00 2/24
202210191900 PORTE-LES-VALENCE (26800) Le Code Bar Mercredi 19 octobre 19:00 0/24
202210191900 PONT-DU-CHATEAU (63430) Le Player 63 Mercredi 19 octobre 19:00 0/32
202210191900 ANNECY (74000) Le Bowl Mercredi 19 octobre 19:00 0/32
202210191900 SAINT-PIERRE-D'ALBIGNY (73250) Le Miolans (mercredi) Mercredi 19 octobre 19:00 0/36
202210191930 MORTEAU (25500) Le Cosy Café Mercredi 19 octobre 19:30 1/24
202210191930 CESSY (01170) Le Cadence Café Mercredi 19 octobre 19:30 0/27
202210201830 JONQUIERES (84150) Le Brusco Jeudi 20 octobre 18:30 16/18
202210201900 RIORGES (42153) Le Bowling de Riorges (Jeudi) Jeudi 20 octobre 19:00 2/24
Page sur

Devenir établissement partenaire

INFINITE PLAYER vous propose bien plus qu'une prestationn, un véritable partenariat pour l'animation dans vos bars, restaurants, bowling… grâce à notre concept de poker 100% gratuit et, bien évidemment, 100% légal.

Notre ambition est d’aider nos établissements partenaires à renforcer la vie sociale et développer une communauté de leur lieu en proposant une animation moderne, tendance et régulière !


Une prestation 3 en 1, à moindres coûts !

  • Vous aider à dynamiser une ou plusieurs soirées creuses dans la semaine.

  • Vous apporter une nouvelle clientèle, la fidéliser rapidement et durablement.

  • Accroître votre notoriété et faire parler de votre établissement.


Pour cela, nous vous apportons :


Contactez nous


  • Email : contact@infiniteplayer.fr

Merci de saisir votre nom ou pseudo

Posez nous toutes vos questions

Merci, votre message a été envoyé avec succès.

Echec de l'envoi, veuillez verifier votre adresse mail.

Echec de l'envoi, veuillez verifier votre nom.

Echec de l'envoi, n'avez-vous pas oublié de taper votre message ?

Echec de l'envoi, une erreur est survenue